Terug naar catalogus

THORAD AGENA D DEB

ActiefLEO
NORAD 42510·DEBRIS·🇺🇸 United States

Gelanceerd Apr 8, 1970 vanaf Vandenberg Space Force Base

Loading…

Volgende Passages (komende 24 uur)

TLE

VerouderdSource: Space-Track

Epoch: Sep 3, 2026, 20:33 UTC

1 42510U 70025RQ  26246.85646806  .00000642  00000-0  64154-3 0  9994
2 42510 100.0393 262.7973 0003443 208.1083 151.9883 13.82242633643206

Volg THORAD AGENA D DEB in realtime met AllMySat

Download on the App Store